Погода в Тырке

Погода в Тырке : погода сейчас, прогноз погоды и архив. Всё, что Вы хотите узнать о погоде в Тырке!

Хотите узнать прогноз погоды в Тырке? Тогда Вам сюда: Погода в Тырке

Поиск расширенной информации на нашем сайте:

Другие новости

Новости СМИ2

Главная страница сайта

Новости сайта

03.07.2017

Напоминаем, что на нашем специализированном сайте Метеоцентр.Азия вы можете получить высокодетализированные автоматические прогнозы погоды по пунктам России, СНГ и мира в авиационном формате (включающие направление и скорость ветра, видимость, явления погоды, количество и форму облачности, нижнюю и верхнюю границу облачности).


Погода в Тырке - сегодня

Время (UTC), дата Ветер
(°,м/с) 
Видим.   Явления Облачность Т
(°С)
Тd
(°С)
f(%) Тe
(°С)
Pmin
(гПа)
dP
(гПа)
Po
(мм)
O2
(г/м3)
Тmin Tmax R s Состояние
почвы
00 19.11.17 тихо ()   н/о  {ливн. осадки}  10/10 600 м кучево-дожд. 
[Cb cap]
-11.4 -11.4 100 -11  1027.9  0.5  709  299  -12.8    10  равномерный
сухой снег
100% 
03 19.11.17 100 (В) 20000 м  осадки на расстоянии{ливн. осадки}  9/9 600 м кучево-дожд. 
[Cb cap]
-9.9 -10.7 94 -10  1027.5  0.2  709  297           
06 19.11.17 180 (Ю) 20000 м  {ливн. осадки}  10/10 600 м кучево-дожд. 
[Cb cap]
-6.5 -8.9 83 -6  1025.5  -0.9  708  293           
09 19.11.17 180 (Ю) н/о    10/10 600 м кучево-дожд. 
[Cb cap]
-6.4 -8 88 -6  1025.2  -0.3  708  293           
12 19.11.17 270 (З) н/о    10/10 600 м кучево-дожд. 
[Cb cap]
-6.6 -8.2 88 -6  1024.7  -0.4  708  293    -4  0.2     
15 19.11.17 320 (СЗ) н/о    10/10 600 м кучево-дожд. 
[Cb cap]
-7.5 -8.1 95 -7  1023.7  -1.2  707  294           
18 19.11.17 тихо ()   н/о    9/9 600 м кучево-дожд. 
[Cb cap]
-10.5 -11.1 95 -11  1022.2  -2.3  705  296           
21 19.11.17 тихо ()   н/о    10/10 600 м кучево-дожд. 
[Cb cap]
-9.7 -10.1 97 -10  1021.1  -0.7  704  295           
00 20.11.17 300 (СЗ) н/о    10/10 600 м кучево-дожд. 
[Cb cap]
-8.9 -9.2 98 -11  1010.3  -0.6  704  294  -11      10  равномерный
сухой снег
100% 
03 20.11.17 тихо ()   20000 м    10/3 600 м средняя 
[Sc diur, vesp|As trans]
-8.5 -9.2 95 -9  1019.7  -0.4  704  293           
06 20.11.17 тихо ()   10 км  осадки на расстоянии  10/10 600 м кучево-дожд. 
[Cb cap]
-4.4 -6 89 -4  1017.9  -0.5  703  289           
09 20.11.17 270 (З) 20000 м  слаб. ливневой снег  10/10 600 м кучево-дожд. 
[Cb cap]
-9.1 -11.6 82 -9  1018.7  -0.6  703  294           
15 20.11.17 тихо ()   н/о    3/3 600 м 
[Sc diur, vesp]
-10.6 -14.2 75 -11  1021  0.6  704  296           
18 20.11.17 280 (З) н/о    3/3 600 м 
[Sc diur, vesp]
-10.3 -15.6 65 -13  1021  0.1  704  296           
21 20.11.17 280 (З) н/о    4/3 600 м верхняя 
[Sc diur, vesp|Ci fib]
-11.4 -15.8 70 -13  1023.2  1.7  705  298           
00 21.11.17 270 (З) н/о  слаб. ливневой снег  10/10 600 м кучево-дожд. 
[Cb cap]
-11.6 -14.4 80 -11  1024.6  0.3  706  298  -12.3    0.2  10  равномерный
сухой снег
100% 
03 21.11.17 270 (З) 20000 м  {ливн. осадки}  8/4 600 м кучево-дожд., верхняя 
[Cb cap|Ci fib]
-11.2 -14.8 75 -11  1023.7  0.3  706  298           
06 21.11.17 270 (З) 20000 м  слаб. ливневой снег  10/10 600 м кучево-дожд. 
[Cb cap]
-10.7 -14.3 75 -11  1024.5  0.8  706  297           
09 21.11.17 270 (З) н/о  ливневой снег  10/10 600 м кучево-дожд. 
[Cb cap]
-11.6 -14.4 80 -14  1025.6  0.8  707  299           
12 21.11.17 280 (З) н/о  слаб. ливневой снег  8/4 600 м кучево-дожд., средняя, верхняя 
[Cb cap|Ac trans|Ci fib]
-14.3 -17 80 -14  1029.3  2.6  709  303    -9.5  0.5     
15 21.11.17 300 (СЗ) 1{10}  н/о    8/1 600 м верхняя 
[Sc diur, vesp|Ci fib]
-17.2 -20.6 75 -17  1031.9  1.4  712  308           
18 21.11.17 100 (В) 20000 м    8/0 верхняя 
[Ci fib]
-19 -20.9 85 -19  1033.2  0.6  710  309           
21 21.11.17 тихо ()   н/о  слаб. ливневой снег  5/5 600 м кучево-дожд. 
[Cb cap]
-22.4 -24.2 85 -22  1034.9  0.4  711  314           
00 22.11.17 тихо ()   н/о  {ливн. осадки}  8/1 600 м средняя 
[Sc diur, vesp|Ac trans]
-25.7 -26.8 90 -26  1035.6  -0.3  711  318  -25.7    0.4  10  равномерный
сухой снег
100% 
03 22.11.17 тихо ()   20000 м    1/0 средняя 
[Ac lent]
-23.8 -25 90 -24  1034.3  -0.7  710  315           
Время (UTC), дата Ветер
(°,м/с) 
Видим.   Явления Облачность Т
(°С)
Тd
(°С)
f(%) Тe
(°С)
Pmin
(гПа)
dP
(гПа)
Po
(мм)
O2
(г/м3)
Тmin Tmax R s Состояние
почвы

Для получения пояснительной информации подведите курсор к названию столбца.

ПОГОДА в Тырке - архив

Всё, что Вы хотите узнать о погоде в Тырке - удобно и подробно!

Выберите нужную дату (начиная с 1 января 2015* года) и нажмите кнопку "Найти".
Будут отображены архивные сводки погоды по пункту Тырка, начиная с указанной даты.


Отображать данные в формате CSV (для использования в таблицах Excel)


Внимание! Наш архив погоды предназначен исключительно для личного некоммерческого использования в познавательных целях. Если Вам необходимы официальные справки о состоянии погоды (для производственных, юридических, коммерческих и т.п. целей), обращайтесь в органы Росгидромета.

*Примечание: данная дата относится к архиву по метеостанциям СССР (Россия, СНГ, Балтия).
Архив по метеостанциям Зарубежной Европы и Азии (кроме Китая) хранится 10 дней, по другим регионам земного шара (Китай, Африка, Америка, Австралия, Океания) - 1 день.

Тырка - район местоположения метеостанции


Название, широта, долгота, высота метеостанции:
Тырка 54.5°ш. 107.1°д. 650 м над ур. моря [Российская Федерация]

Дополнительная информация

В oтличие oт бoльшинства пoгoдных сайтoв мы публикуем пoдрoбную метеoинфoрмацию в детальнoм прoфессиoнальнoм фoрмате.

Характеристики температуры и влажнoсти вoздуха измеряются на высoте 2 м в тени вдали oт зданий и деревьев.
Скoрoсть ветра измеряется на высoте 10 м (на урoвне рoста челoвека скoрoсть ветра ниже в 1.5-2 раза). Если метеoстанция нахoдится в гoрoде или в лесу, тo скoрoсть ветра занижена на 2-4 м/с пo сравнению с oткрытым местoм. Скoрoсть ветра над акватoриями крупных рек и oзёр, а также на вершинах хoлмoв на 2-5 м/с выше, чем в oбычных услoвиях.
Атмoсфернoе давление в разных тoчках местнoсти мoжет значительнo oтличаться oт давления на метеoстанции, в зависимoсти oт услoвий рельефа (при пoдъёме на 10 м давление пoнижается примернo на 1 мм рт.ст.).